Regional Weather Roundup
Issued by NWS

Home | Current Version | Previous Version | Graphics & Text | Print | Product List | Glossary On
Versions: 1 2 3 4 5 6 7 8 9 10 11 12 13 14 15 16 17 18 19 20 21 22 23 24 25 26 27 28 29 30 31 32 33 34 35 36 37 38 39 40 41 42 43 44 45 46 47 48 49 50
000
ASUS43 KLOT 180100
RWRIL

ILLINOIS REGIONAL WEATHER ROUNDUP
NATIONAL WEATHER SERVICE CHICAGO/ROMEOVILLE IL
700 PM CST WED DEC 17 2014

NOTE: "FAIR" INDICATES FEW OR NO CLOUDS BELOW 12,000 FEET WITH NO
SIGNIFICANT WEATHER AND/OR OBSTRUCTIONS TO VISIBILITY.

* THESE STATIONS ARE NOT UNDER NWS QUALITY CONTROL. THEY ALSO MAY NOT
  REPORT WEATHER SUCH AS PRECIPITATION OR FOG.

ILZ001-002-007-009-015-016-024-180200-
NORTHWEST ILLINOIS

CITY           SKY/WX    TMP DP  RH WIND       PRES   REMARKS
MOLINE         CLEAR     24  15  68 NW3       30.30S
STERLING*      CLEAR     21  14  73 N5        30.29S WCI  15
$$

ILZ003-004-008-010-011-017-018-180200-
NORTH CENTRAL ILLINOIS

CITY           SKY/WX    TMP DP  RH WIND       PRES   REMARKS
ROCKFORD       CLOUDY    24  16  71 W8        30.29S WCI  15
$$

ILZ005-006-012>014-019>023-180200-
NORTHEAST ILLINOIS

CITY           SKY/WX    TMP DP  RH WIND       PRES   REMARKS
CHICAGO-OHARE  CLOUDY    25  15  66 NW10      30.26R WCI  15
CHICAGO-MIDWAY CLOUDY    27  16  63 NW7       30.27R WCI  19
AURORA         CLOUDY    25  17  72 W8        30.28R WCI  16
WAUKEGAN       CLOUDY    24  16  71 W5        30.24R WCI  18
DUPAGE AIRPORT CLOUDY    25  17  72 W9        30.26R WCI  15
WHEELING       CLOUDY    25  15  66 W8        30.27S WCI  16
NORTHERLY ISL    N/A     27  18  69 NW9         N/A  WCI  18
$$

LMZ740>746-180200-
SOUTHERN LAKE MICHIGAN

STATION/POSITION SKY/WX   TEMP    WIND        PRES    VSBY  WAVE
                          AIR SEA DIR/SP/G                  HT/PER
                          (F)     (DEG/KT/KT) (MB)    (MI)  (FT/S)
WAUKEGAN HARBOR            25     300/  4/ 10   N/A
HARRISON CRIB              26     280/ 10/ 14   N/A
BURNHAM HARBOR             27     250/  6/ 12   N/A
CALUMET HARBOR             26     270/  6/  9 1023.5R
$$

ILZ025>027-034>036-040-047-049-050-058-095>099-180200-
WEST-CENTRAL ILLINOIS

CITY           SKY/WX    TMP DP  RH WIND       PRES   REMARKS
QUINCY         PTCLDY    23  18  81 NE7       30.28F WCI  15
$$

ILZ028>032-037-038-041>044-048-051>054-059>061-180200-
CENTRAL ILLINOIS

CITY           SKY/WX    TMP DP  RH WIND       PRES   REMARKS
DECATUR        CLOUDY    24  19  81 NW6       30.31F WCI  17
PEORIA         CLOUDY    25  18  74 CALM      30.30F
SPRINGFIELD    CLEAR     21  17  84 N5        30.31F WCI  15
TAYLORVILLE    NOT AVBL
$$

ILZ033-039-045-046-055>057-062-063-180200-
EAST-CENTRAL ILLINOIS

CITY           SKY/WX    TMP DP  RH WIND       PRES   REMARKS
CHAMPAIGN      CLOUDY    24  18  77 NW8       30.30F WCI  15
MATTOON        CLOUDY    24  18  77 N7        30.30S WCI  16
$$

ILZ079-100>102-180200-
SOUTHWEST ILLINOIS

CITY           SKY/WX    TMP DP  RH WIND       PRES   REMARKS
ALTON          MOCLDY    30  25  80 N6        30.31R WCI  24
BELLEVILLE     MOCLDY    33  27  79 NE3       30.30R
CAHOKIA*       MOCLDY    34  26  72 NE5       30.30R WCI  30
$$

ILZ064>066-069>071-074>076-080>082-084>086-088>090-092>094-180200-
SOUTH-CENTRAL ILLINOIS

CITY           SKY/WX    TMP DP  RH WIND       PRES   REMARKS
CARBONDALE     MOCLDY    33  28  81 CALM      30.29F
MT. VERNON     MOCLDY    32  21  64 N5        30.30R WCI  27
$$

ILZ067-068-072-073-078-083-087-091-180200-
SOUTHEAST ILLINOIS

CITY           SKY/WX    TMP DP  RH WIND       PRES   REMARKS
LAWRENCEVILLE  CLOUDY    29  22  75 NW7       30.32S WCI  22
$$

ABBREVIATIONS USED IN REMARKS
   TC - TEMPERATURE IN CELSIUS
  WCI - WIND CHILL INDEX
   HX - HEAT INDEX
  VSB - VISIBILITY
$$



USA.gov is the U.S. government's official web portal to all federal, state and local government web resources and services.